SL-14 R/B (13553 NORAD) Tracking and Keplerian Element Data

This shows tracking and keplerian element data for the satellite.

Feedback or suggestion? Click here.




ElementValue
Catalog13553
NameSL-14 R/B
Epoch Orbit21208
Epoch Day12.89547073
Epoch Year2024
RAAN156.6227
Inclination82.5695
Eccentricity0.0021674
Argument of Perigee32.1731
Mean Anonmoly136.9308
Mean Motion14.85141416
Decay Rate9.24E-06
L11 13553U 82092B 24012.89547073 .00000924 00000+0 10480-3 0 9990
L22 13553 82.5695 156.6227 0021674 32.1731 136.9308 14.85141416212088



Live tracking and technical data element details for SL-14 R/B (NORAD 13553). SL-14 R/B can be tracked NOW for your location showing map with azimuth and elevation plus other details from your city location.







IsCatalogInMostPopularTable: catalog: 13553, numindb: 159
Update: records affected: 1



GetName: 13553 SL-14 R/B

Hit Count: updated at: Fri, 19 Apr 2024 12:25:04 GMT